Other Surface Observations
Issued by NWS Charleston, SC

Current Version | Previous Version | Text Only | Print | Product List | Glossary On
Versions: 1 2 3 4 5 6 7 8 9 10 11 12 13 14 15 16 17 18 19 20 21 22 23 24 25 26 27 28 29 30 31 32 33 34 35 36 37 38 39 40 41 42 43 44 45 46 47 48 49 50
000
SXUS52 KCHS 232128
OSOCHS

MARINE OBSERVATIONS
NATIONAL WEATHER SERVICE CHARLESTON SC
500 PM EDT SAT JUL 23 2016

...DOWNTOWN CHARLESTON AND HARBOR...

CITY           SKY/WX    TMP DP  RH WIND       PRES   REMARKS
WATERFRONT PRK   N/A     88  77  69 S9        29.96F HX 100

...LAKE MOULTRIE...

CITY           SKY/WX    TMP DP  RH WIND       PRES   REMARKS
PINOPOLIS        N/A     95  72  46 VRB3      29.88F HX 103

...LAKE AND SUPPLEMENTAL COASTAL OBSERVATIONS...

STATION/POSITION TIME  TEMP    WIND        PRES    WAVE   SWELL
                       AIR SEA DIR/SP/G            HT/PER HT/PER/DIR
                 (UTC) (F)     (DEG/KT/KT) (MB)    (FT/S) (FT/S/D)
FORT PULASKI     2100   89 88  160/  9/ 13 1015.6F
SAPELO ISLAND    2100   92     150/ 11     1015.0F
WINYAH BAY       2045   87     230/  9     1014.0F
LAKE MURRAY      2100   86      50/  1/  6 1014.9R
ACE BASIN NERRS  2000   90     160/  1     1015.0F


...C-MAN AND BUOY OBSERVATIONS...

STATION/POSITION TIME  TEMP    WIND        PRES    WAVE   SWELL
                       AIR SEA DIR/SP/G            HT/PER HT/PER/DIR
                 (UTC) (F)     (DEG/KT/KT) (MB)    (FT/S) (FT/S/D)
BUOY 41004       2050   84 87  160/  8/ 10 1015.2F   2/ 8   2/130/ 8
BUOY 41008       2050   85 88  160/ 10/ 12 1015.6F   2/ 8   2/100/ 8
FOLLY BEACH CMAN 2100   86     190/ 13/ 14 1015.6F
CAPERS NS BUOY   2108   85 86  190/ 12/ 16 1015.1F
FRIPP NS BUOY    2108   86 88  180/ 14/ 16 1014.7F
5E ST. MARYS GA  2101      88                N/A     2/ 8


STATION/POSITION TIME  TEMP    WIND        PRES    WAVE   SWELL
                       AIR SEA DIR/SP/G            HT/PER HT/PER/DIR
                 (UTC) (F)     (DEG/KT/KT) (MB)    (FT/S) (FT/S/D)
FRYING PAN BUOY  2100   84 86  170/  8/ 10 1015.4F
BUOY 41025       2050   85 86  220/ 12/ 14 1015.1F   2/ 9   2/120/ 9
CAPE LOOKOUT NC  2100   85     220/ 10/ 12 1015.0F
BUOY 41002       2050   83 88  110/  4/  6 1016.3F   3/ 9   3/110/ 9
BUOY 41010       2020   85 87   50/  6/  8 1016.4F
ST AUGUSTINE FL  2100   85 89  130/ 12/ 14 1017.0S

$$




USA.gov is the U.S. government's official web portal to all federal, state and local government web resources and services.